Weather History for Budapest Ferihegy, Hungary

Change the Weather History Date:

Saturday, December 29, 2012

  Actual Average Record
Temperature  
Mean Temperature 28 °F -  
Max Temperature 39 °F 35 °F 44 °F (1997)
Min Temperature 17 °F 22 °F 1 °F (2010)
Degree Days  
Heating Degree Days 37    
Moisture  
Dew Point 20 °F    
Average Humidity 76    
Maximum Humidity 100    
Minimum Humidity 31    
Precipitation  
Precipitation 0.00 in - - ()
Sea Level Pressure  
Sea Level Pressure 30.44 in    
Wind  
Wind Speed 3 mph ()    
Max Wind Speed 7 mph    
Max Gust Speed -    
Visibility 4.0 miles    
Events      
Averages and records for this station are not official NWS values.
T = Trace of Precipitation, MM = Missing Value Source: Averaged Metar Reports

Daily Weather History Graph

Daily Weather History Graph

Search for Another Location

Airport:

Trip Planner

Search our weather history database for the weather conditions in past years. The results will help you decide how hot, cold, wet, or windy it might be!

Date:

Astronomy

Dec. 29, 2012 Rise Set
Actual Time 7:30 AM CET 4:00 PM CET
Civil Twilight 6:54 AM CET 4:35 PM CET
Nautical Twilight 6:15 AM CET 5:15 PM CET
Astronomical Twilight 5:38 AM CET 5:52 PM CET
Moon 5:22 PM CET (12/29) 7:46 AM CET (12/29)
Length of Visible Light 9h 41m
Length of Day
8h 29m
Full, 99% of the Moon is Illuminated
Dec 29
Full
Jan 5
Last Quarter
Jan 11
New
Jan 19
First Quarter
Jan 27
Full

Hourly Weather History & Observations

Time (CET) Temp. Windchill Dew Point Humidity Pressure Visibility Wind Dir Wind Speed Gust Speed Precip Events Conditions
12:00 AM 30.2 °F 25.4 °F 30.2 °F 100% 30.42 in 5.0 mi West 4.6 mph - N/A   Unknown
12:30 AM 26.6 °F 20.0 °F 26.6 °F 100% 30.42 in 5.0 mi NNW 5.8 mph - N/A   Unknown
1:00 AM 28.4 °F 21.2 °F 28.4 °F 100% 30.42 in 4.3 mi West 6.9 mph - N/A   Unknown
1:30 AM 28.4 °F 23.3 °F 28.4 °F 100% 30.42 in 4.3 mi West 4.6 mph - N/A   Unknown
2:00 AM 28.4 °F 22.2 °F 26.6 °F 93% 30.42 in 3.7 mi NW 5.8 mph - N/A   Unknown
2:30 AM 23.0 °F - 21.2 °F 93% 30.45 in 3.7 mi Variable 2.3 mph - N/A   Unknown
3:00 AM 26.6 °F 21.2 °F 26.6 °F 100% 30.45 in 3.7 mi West 4.6 mph - N/A   Unknown
3:30 AM 28.4 °F 23.3 °F 26.6 °F 93% 30.45 in 3.7 mi WSW 4.6 mph - N/A   Unknown
4:00 AM 24.8 °F 19.1 °F 23.0 °F 93% 30.45 in 3.7 mi West 4.6 mph - N/A   Unknown
4:30 AM 24.8 °F - 23.0 °F 93% 30.42 in 3.7 mi Variable 2.3 mph - N/A   Unknown
5:00 AM 24.8 °F - 24.8 °F 100% 30.45 in 3.7 mi Variable 2.3 mph - N/A   Unknown
5:30 AM 19.4 °F - 17.6 °F 93% 30.45 in 3.7 mi Variable 2.3 mph - N/A   Unknown
6:00 AM 19.4 °F - 17.6 °F 93% 30.45 in 3.7 mi Variable 1.2 mph - N/A   Unknown
6:30 AM 17.6 °F - 17.6 °F 100% 30.45 in 3.7 mi Variable 1.2 mph - N/A   Unknown
7:00 AM 17.6 °F - 15.8 °F 93% 30.45 in - Calm Calm - N/A   Clear
7:30 AM 19.4 °F - 15.8 °F 86% 30.45 in - Variable 2.3 mph - N/A   Clear
8:00 AM 17.6 °F 10.7 °F 15.8 °F 93% 30.48 in - NNW 4.6 mph - N/A   Clear
8:30 AM 19.4 °F - 17.6 °F 93% 30.48 in - Variable 1.2 mph - N/A   Clear
9:00 AM 24.8 °F 19.1 °F 23.0 °F 93% 30.45 in - SE 4.6 mph - N/A   Clear
9:30 AM 26.6 °F 22.6 °F 26.6 °F 100% 30.48 in - Variable 3.5 mph - N/A   Clear
10:00 AM 30.2 °F 26.7 °F 28.4 °F 93% 30.48 in - Variable 3.5 mph - N/A   Clear
10:30 AM 32.0 °F 27.5 °F 26.6 °F 80% 30.48 in - WNW 4.6 mph - N/A   Clear
11:00 AM 33.8 °F 29.6 °F 21.2 °F 60% 30.48 in - WNW 4.6 mph - N/A   Clear
11:30 AM 35.6 °F 31.7 °F 21.2 °F 56% 30.48 in - SW 4.6 mph - N/A   Clear
12:00 PM 37.4 °F 34.9 °F 12.2 °F 36% 30.45 in - Variable 3.5 mph - N/A   Clear
12:30 PM 37.4 °F - 10.4 °F 33% 30.45 in - Variable 2.3 mph - N/A   Clear
1:00 PM 39.2 °F - 10.4 °F 31% 30.45 in - Variable 1.2 mph - N/A   Clear
1:30 PM 39.2 °F - 10.4 °F 31% 30.45 in - Variable 1.2 mph - N/A   Clear
2:00 PM 39.2 °F 37.0 °F 10.4 °F 31% 30.42 in - Variable 3.5 mph - N/A   Clear
2:30 PM 39.2 °F - 12.2 °F 33% 30.42 in - Variable 2.3 mph - N/A   Clear
3:00 PM 39.2 °F - 14.0 °F 36% 30.42 in - Variable 2.3 mph - N/A   Clear
3:30 PM 35.6 °F 31.7 °F 15.8 °F 44% 30.42 in - ESE 4.6 mph - N/A   Clear
4:00 PM 33.8 °F 30.8 °F 17.6 °F 52% 30.42 in - Variable 3.5 mph - N/A   Clear
4:30 PM 32.0 °F - 15.8 °F 51% 30.42 in - Variable 2.3 mph - N/A   Clear
5:00 PM 30.2 °F - 15.8 °F 55% 30.42 in - Variable 2.3 mph - N/A   Clear
5:30 PM 28.4 °F 24.6 °F 17.6 °F 64% 30.42 in - Variable 3.5 mph - N/A   Clear
6:00 PM 28.4 °F 23.3 °F 17.6 °F 64% 30.42 in - East 4.6 mph - N/A   Clear
6:30 PM 26.6 °F 21.2 °F 19.4 °F 74% 30.42 in - East 4.6 mph - N/A   Clear
7:00 PM 24.8 °F - 17.6 °F 74% 30.42 in - Variable 2.3 mph - N/A   Clear
7:30 PM 26.6 °F - 19.4 °F 74% 30.42 in - Variable 1.2 mph - N/A   Clear
8:00 PM 26.6 °F - 19.4 °F 74% 30.42 in - Variable 2.3 mph - N/A   Clear
8:30 PM 24.8 °F 19.1 °F 19.4 °F 80% 30.42 in - ESE 4.6 mph - N/A   Clear
9:00 PM 24.8 °F 19.1 °F 19.4 °F 80% 30.42 in - ESE 4.6 mph - N/A   Clear
9:30 PM 26.6 °F 21.2 °F 21.2 °F 80% 30.42 in - ESE 4.6 mph - N/A   Clear
10:00 PM 26.6 °F 20.0 °F 21.2 °F 80% 30.42 in - East 5.8 mph - N/A   Clear
10:30 PM 24.8 °F 19.1 °F 21.2 °F 86% 30.42 in - East 4.6 mph - N/A   Clear
11:00 PM 24.8 °F 19.1 °F 21.2 °F 86% 30.42 in - ESE 4.6 mph - N/A   Clear
11:30 PM 24.8 °F 17.9 °F 21.2 °F 86% 30.39 in - ESE 5.8 mph - N/A   Clear